{"data":{"norad_id":59296,"epoch":"2026-09-21T05:14:59.772768Z","epoch_age_seconds":100098,"freshness":"FRESH","line1":"1 59296U 24056A   26264.21874737  .00000516  00000+0  28264-4 0  9994","line2":"2 59296  43.0055 202.5191 0000910 272.0998  87.9749 15.27576955141100","mean_motion":15.27576955,"eccentricity":9.1e-5,"inclination_deg":43.0055,"raan_deg":202.5191,"arg_perigee_deg":272.0998,"mean_anomaly_deg":87.9749,"bstar":2.8264e-5,"rev_number":14110,"period_min":94.266936620551,"perigee_km":482.43384511577,"apogee_km":483.68258264469,"semimajor_km":6861.1952138802,"source":"CELESTRAK","updated_at":"2026-09-22T09:00:48.874543Z"}}